Terug naar catalogus

STARLINK-33587

ActiefCommunicatieVLEO
NORAD 63469·PAYLOAD·🇺🇸 United States

Gelanceerd Apr 6, 2025 vanaf Cape Canaveral Space Force Station

Loading…

Volgende Passages (komende 24 uur)

TLE

VersSource: CelesTrak SupGP

Epoch: Sep 14, 2026, 22:39 UTC

1 63469C 25070K   26257.94423611  .00036575  00000+0  13247-2 0  2575
2 63469  43.0022 270.8452 0001196 273.0267  31.8197 15.27562704    12

Volg STARLINK-33587 in realtime met AllMySat

Download on the App Store